sat.trackr.live / text

‹ back to catalog

STARLINK-11633 [DTC]

NORAD 63317 · 2025-057L

PAYLOAD ACTIVE UNKNOWN

§ Identity

Operator
Country
US
Launch date
2025-03-18
Launch site
AFETR
Launch vehicle
Mass (kg)
RCS (m²)

Purposes: comms

External: N2YO · Heavens-Above · Gunter

§ Orbital elements

Epoch: 2026-05-25T01:30:28.226016Z

Period
91.66 min
Inclination
42.9993°
Eccentricity
0.0001330
Mean motion
15.70985298 rev/d
Perigee alt
355.2 km
Apogee alt
357.0 km
Semi-major
6,734.2 km
B*
1.7649e-3
RAAN
163.7712°
Arg perigee
242.6140°
Mean anomaly
117.4593°
Rev number
6,919

§ Raw data

STARLINK-11633 [DTC]1 63317U 25057L   26145.06282669  .00233921  00000+0  17649-2 0  99942 63317  42.9993 163.7712 0001330 242.6140 117.4593 15.70985298 69190

JSON: /api/v1/satellites/63317 · /tle

For live sub-satellite position, see the globe view (requires WebGL).

§ Visibility from observer

Set your observer location to see the next 7 days of passes ≥ 10°. The values pass through the URL so the page stays shareable.

No JS? Fill the form by hand. The geolocation button needs JavaScript.